« Back
NWS Peachtree City, Ga » Text Product » GA Regional Weather Roundup


Printer-friendly Version
Current Version              Previous Versions:   1  2  3  4  5  6  7  8  9  

Regional Weather Roundup

577
ASUS42 KFFC 031503
RWRGA
WEATHER ROUNDUP FOR GEORGIA
NATIONAL WEATHER SERVICE PEACHTREE CITY GA
1100 AM EDT SUN MAY 03 2015

NOTE: "FAIR" INDICATES FEW OR NO CLOUDS BELOW 12,000 FEET WITH NO
SIGNIFICANT WEATHER AND/OR OBSTRUCTIONS TO VISIBILITY.

* = USE WITH CAUTION. THE STATIONS MARKED WITH AN ASTERISK MAY NOT
REPORT WEATHER SUCH AS PRECIPITATION, FOG, OR THUNDER AND ARE NOT
QUALITY CONTROLLED BY NWS.

THE REMARK "TC" DENOTES TEMPERATURE READING IN DEGREES CELSIUS.

GAZ001>058-031600-
NORTH GEORGIA

CITY           SKY/WX    TMP DP  RH WIND       PRES   REMARKS
ATLANTA        MOSUNNY   73  50  44 VRB3      30.19R
ATHENS         SUNNY     72  51  47 NW3       30.20R
CHAMBLEE       SUNNY     72  51  47 SW6       30.19R
PEACHTREE CITY SUNNY     73  52  47 VRB3      30.20R
ROME           SUNNY     68  54  60 CALM      30.18S
WEST ATLANTA   SUNNY     69  52  54 VRB5      30.19R
GAINESVILLE    SUNNY     71  47  42 CALM      30.21S
CARTERSVILLE   SUNNY     71  51  49 CALM      30.19S


CITY           SKY/WX    TMP DP  RH WIND       PRES   REMARKS
DALTON*        SUNNY     64  52  63 CALM      30.19S
LAWRENCEVILLE* SUNNY     70  45  40 CALM      30.20R
MARIETTA       MOSUNNY   73  50  44 VRB2      30.19S
BLAIRSVILLE*     N/A     67   7   9 CALM      30.22S
$$

GAZ059>098-102>109-031600-
CENTRAL GEORGIA

CITY           SKY/WX    TMP DP  RH WIND       PRES   REMARKS
AUGUSTA-BUSH   SUNNY     74  53  48 S5        30.20R
AUGUSTA-DANIEL SUNNY     76  52  43 S7        30.21R
COLUMBUS       SUNNY     72  52  49 S3        30.18S
MACON          SUNNY     74  51  44 CALM      30.20R
ROBINS AFB     SUNNY     73  54  51 VRB2      30.19S


CITY           SKY/WX    TMP DP  RH WIND       PRES   REMARKS
LAGRANGE*      SUNNY     76  55  48 CALM      30.19S
SYLVANIA*      SUNNY     74  55  52 NW5       30.22R
MILLEDGEVILLE* SUNNY     73  57  56 CALM      30.20R
$$

GAZ099>101-110>166-031600-
SOUTH GEORGIA

CITY           SKY/WX    TMP DP  RH WIND       PRES   REMARKS
SAVANNAH       SUNNY     75  51  43 W7        30.21R
VALDOSTA       SUNNY     76  49  38 VRB5      30.20R
ALMA           SUNNY     75  48  38 S6        30.21R
ST SIMONS      SUNNY     74  52  46 SW7       30.21R
FT STEWART     SUNNY     75  51  42 W8        30.19R
ALBANY         SUNNY     76  54  46 VRB5      30.21R
HUNTER AFB     SUNNY     75  54  46 VRB6      30.19R
MOODY AFB      SUNNY     76  52  43 S8        30.19R
BRUNSWICK      SUNNY     77  50  38 SW7       30.21S


CITY           SKY/WX    TMP DP  RH WIND       PRES   REMARKS
BAINBRIDGE*    SUNNY     79  55  44 E7        30.19R
MOULTRIE*      SUNNY     73  54  49 E3        30.21S
VIDALIA*       SUNNY     73  59  60 SW3       30.21S
WAYCROSS*      SUNNY     79  51  38 SW6       30.21R
DOUGLAS*       SUNNY     75  52  43 SW7       30.22R
$$



USA.gov is the U.S. government's official web portal to all federal, state and local government web resources and services.